Weather History for Patuxent River, MD

Change the Weather History Date:

Friday, December 7, 2012

  Actual Average Record
Temperature  
Mean Temperature 44 °F -  
Max Temperature 52 °F 50 °F 80 °F (1998)
Min Temperature 36 °F 34 °F 13 °F (2002)
Degree Days  
Heating Degree Days 21    
Moisture  
Dew Point 42 °F    
Average Humidity 85    
Maximum Humidity 93    
Minimum Humidity 71    
Precipitation  
Precipitation 0.74 in - - ()
Sea Level Pressure  
Sea Level Pressure 30.11 in    
Wind  
Wind Speed 2 mph (South)    
Max Wind Speed 7 mph    
Max Gust Speed -    
Visibility 9 miles    
Events Rain    
Averages and records for this station are not official NWS values.
T = Trace of Precipitation, MM = Missing Value Source: NWS Daily Summary

Daily Weather History Graph

Daily Weather History Graph

Search for Another Location

Airport:

Trip Planner

Search our weather history database for the weather conditions in past years. The results will help you decide how hot, cold, wet, or windy it might be!

Date:

Astronomy

Dec. 07, 2012 Rise Set
Actual Time 7:09 AM EST 4:45 PM EST
Civil Twilight 6:40 AM EST 5:14 PM EST
Nautical Twilight 6:07 AM EST 5:47 PM EST
Astronomical Twilight 5:35 AM EST 6:19 PM EST
Moon 12:31 AM EST (12/7) 12:36 PM EST (12/7)
Length of Visible Light 10h 34m
Length of Day
9h 35m
Last Quarter, 39% of the Moon is Illuminated
Dec 7
Last Quarter
Dec 13
New
Dec 20
First Quarter
Dec 28
Full
Jan 4
Last Quarter

Hourly Weather History & Observations

Time (EST) Temp. Windchill Dew Point Humidity Pressure Visibility Wind Dir Wind Speed Gust Speed Precip Events Conditions
12:52 AM 36.0 °F - 30.9 °F 82% 30.25 in 10.0 mi Calm Calm - N/A   Mostly Cloudy
1:52 AM 37.0 °F 34.5 °F 32.0 °F 82% 30.24 in 10.0 mi South 3.5 mph - N/A   Overcast
2:52 AM 37.9 °F - 33.1 °F 83% 30.22 in 10.0 mi Calm Calm - N/A   Mostly Cloudy
3:52 AM 39.9 °F 37.8 °F 34.0 °F 79% 30.21 in 10.0 mi South 3.5 mph - N/A   Overcast
4:52 AM 42.1 °F - 35.1 °F 76% 30.20 in 8.0 mi Calm Calm - 0.01 in Rain Rain
5:11 AM 41.0 °F 39.0 °F 37.4 °F 87% 30.20 in 10.0 mi South 3.5 mph - 0.01 in Rain Light Rain
5:52 AM 42.1 °F 40.2 °F 37.9 °F 85% 30.19 in 10.0 mi SSE 3.5 mph - 0.01 in   Overcast
6:16 AM 42.8 °F 41.1 °F 37.4 °F 81% 30.20 in 10.0 mi South 3.5 mph - 0.00 in Rain Light Rain
6:52 AM 43.0 °F 41.3 °F 39.0 °F 86% 30.20 in 10.0 mi SSE 3.5 mph - 0.01 in Rain Light Rain
7:52 AM 43.0 °F 40.3 °F 39.9 °F 89% 30.19 in 10.0 mi SSE 4.6 mph - 0.00 in Rain Light Rain
8:20 AM 44.6 °F 42.2 °F 39.2 °F 81% 30.19 in 10.0 mi SSE 4.6 mph - 0.00 in   Overcast
8:52 AM 45.0 °F 41.2 °F 39.9 °F 82% 30.19 in 10.0 mi SSE 6.9 mph - 0.00 in   Overcast
9:52 AM 46.0 °F 44.8 °F 41.0 °F 83% 30.19 in 10.0 mi South 3.5 mph - N/A   Overcast
10:52 AM 46.9 °F - 41.0 °F 80% 30.17 in 10.0 mi South 3.5 mph - N/A   Overcast
10:54 AM 46.4 °F - 41.0 °F 81% 30.17 in 10.0 mi Calm Calm - N/A   Overcast
11:52 AM 48.0 °F - 42.1 °F 80% 30.15 in 10.0 mi SSE 6.9 mph - N/A   Overcast
12:52 PM 50.0 °F - 42.1 °F 74% 30.11 in 10.0 mi SSE 6.9 mph - N/A   Overcast
1:52 PM 50.0 °F - 42.1 °F 74% 30.09 in 10.0 mi South 4.6 mph - N/A   Overcast
2:52 PM 52.0 °F - 43.0 °F 71% 30.07 in 10.0 mi Variable 3.5 mph - N/A   Mostly Cloudy
3:17 PM 51.8 °F - 42.8 °F 71% 30.07 in 10.0 mi SSE 3.5 mph - N/A   Mostly Cloudy
3:52 PM 51.1 °F - 44.1 °F 77% 30.07 in 10.0 mi Calm Calm - N/A   Mostly Cloudy
4:46 PM 50.0 °F - 44.6 °F 82% 30.07 in 10.0 mi Calm Calm - 0.01 in Rain Light Rain
4:52 PM 50.0 °F - 45.0 °F 83% 30.07 in 7.0 mi Calm Calm - 0.03 in Rain Rain
5:52 PM 48.9 °F - 46.0 °F 90% 30.06 in 10.0 mi Calm Calm - 0.02 in Rain Light Rain
6:33 PM 48.2 °F - 46.4 °F 93% 30.06 in 10.0 mi Calm Calm - 0.01 in   Overcast
6:46 PM 48.2 °F - 46.4 °F 93% 30.05 in 10.0 mi Calm Calm - 0.02 in Rain Light Rain
6:52 PM 48.9 °F - 46.0 °F 90% 30.06 in 10.0 mi East 3.5 mph - 0.02 in Rain Light Rain
7:52 PM 48.9 °F - 46.0 °F 90% 30.05 in 10.0 mi ESE 3.5 mph - 0.00 in Rain Light Rain
8:52 PM 48.0 °F - 46.0 °F 93% 30.03 in 3.0 mi NE 3.5 mph - 0.21 in Rain Heavy Rain
9:40 PM 48.2 °F - 46.4 °F 93% 30.01 in 3.0 mi Calm Calm - 0.22 in Rain Heavy Rain
9:52 PM 48.9 °F - 46.9 °F 93% 30.01 in 4.0 mi Calm Calm - 0.27 in Rain Rain
10:17 PM 48.2 °F - 46.4 °F 93% 30.00 in 6.0 mi West 3.5 mph - 0.05 in Rain Light Rain
10:32 PM 48.2 °F - 46.4 °F 93% 30.01 in 4.0 mi West 6.9 mph - 0.07 in Rain Light Rain
10:52 PM 48.9 °F - 46.9 °F 93% 30.00 in 7.0 mi WNW 3.5 mph - 0.12 in Rain Light Rain
10:59 PM 48.2 °F - 46.4 °F 93% 30.00 in 10.0 mi West 3.5 mph - 0.00 in   Overcast
11:45 PM 48.2 °F - 46.4 °F 93% 29.99 in 10.0 mi Calm Calm - 0.04 in Rain Light Rain
11:52 PM 48.9 °F - 46.9 °F 93% 29.99 in 10.0 mi Calm Calm - 0.04 in Rain Light Rain